Regional Weather Roundup
Issued by NWS Sioux Falls, SD

Home | Current Version | Previous Version | Text Only | Print | Product List | Glossary Off
Versions: 1 2 3 4 5 6 7 8 9 10 11 12 13 14 15 16 17 18 19 20 21 22 23 24 25 26 27 28 29 30 31 32 33 34 35 36 37 38 39 40 41 42 43 44 45 46 47 48 49 50

000
ASUS43 KFSD 280010
RWRFSD

WEATHER ROUNDUP FOR SE SOUTH DAKOTA/SW MINNESOTA/NW IOWA
NATIONAL WEATHER SERVICE SIOUX FALLS SD
700 PM CDT TUE JUN 27 2017

NOTE: "FAIR" INDICATES FEW OR NO CLOUDS BELOW 12,000 FEET WITH NO
SIGNIFICANT WEATHER AND OR OBSTRUCTIONS TO VISIBILITY.


SDZ038>040-050-052>070-280100-
SOUTHEAST SOUTH DAKOTA

CITY           SKY/WX    TMP DP  RH WIND       PRES   REMARKS
BROOKINGS      MOSUNNY   77  53  43 S21G30    29.71S
CHAMBERLAIN    PTSUNNY   87  66  49 SE22G31   29.58F
6HR MIN TEMP:  79; 6HR MAX TEMP:  89;

HURON          PTSUNNY   83  57  41 S20G28    29.62S
6HR MIN TEMP:  76; 6HR MAX TEMP:  84;

MADISON        FAIR      75  55  50 S23G35    29.70F
MITCHELL       CLOUDY    83  60  45 S25G37    29.62F
6HR MIN TEMP:  77; 6HR MAX TEMP:  85;

SIOUX FALLS    CLOUDY    77  59  53 S20G30    29.72F
6HR MIN TEMP:  73; 6HR MAX TEMP:  80; 6HR PCP: TRACE;

WINNER         FAIR      88  63  43 S25G36    29.58F
YANKTON        CLOUDY    80  63  55 SE23G35   29.69F
$$

MNZ071-072-080-081-089-090-097-098-280100-
SOUTHWEST MINNESOTA

CITY           SKY/WX    TMP DP  RH WIND       PRES   REMARKS
FAIRMONT       SUNNY     75  48  38 S18G25    29.83F
JACKSON        SUNNY     75  45  33 S16G28    29.83S
LUVERNE        MOSUNNY   75  52  43 S18       29.75F
MARSHALL       MOSUNNY   77  46  33 S20G25    29.74F
6HR MIN TEMP:  74; 6HR MAX TEMP:  79;

MONTEVIDEO     CLOUDY    75  45  33 S12       29.78S THUNDER
PIPESTONE      MOSUNNY   77  52  41 S17G29    29.74F
REDWOOD FALLS  PTSUNNY   79  43  27 S21G26    29.80R
TRACY          CLOUDY    77  46  33 S16G23    29.78F
WINDOM         SUNNY     77  43  29 S17G26    29.81S
WORTHINGTON    SUNNY     76  52  43 S20G26    29.80
$$

IAZ001>003-012>014-020>022-031-032-NEZ013-014-SDZ071-280100-
NORTHWEST IOWA

CITY           SKY/WX    TMP DP  RH WIND       PRES   REMARKS
CHEROKEE       SUNNY     78  57  48 S16G25    29.80F
DENISON        SUNNY     77  61  57 MISG      29.84F
ESTHERVILLE    SUNNY     75  50  41 S22G29    29.82F
LE MARS        CLOUDY    79  61  53 S22G29    29.76F
ORANGE CITY    SUNNY     79  59  50 S20G26    29.77F
SHELDON        SUNNY     77  55  47 S21G31    29.77F
SIOUX CITY     MOSUNNY   79  62  56 S21G28    29.77F
6HR MIN TEMP:  76; 6HR MAX TEMP:  82;

SPENCER        SUNNY     79  53  40 S22G29    29.81F
6HR MIN TEMP:  74; 6HR MAX TEMP:  81;

STORM LAKE     SUNNY     77  57  50 S18G25    29.82F
$$

ABBREVIATIONS USED IN REMARKS
   TC - TEMPERATURE IN CELSIUS
  WCI - WIND CHILL INDEX
   HX - HEAT INDEX
  VSB - VISIBILITY




USA.gov is the U.S. government's official web portal to all federal, state and local government web resources and services.